Location: Long Island Community Building
(39.9491°N, 99.5338°W)
Time: 22:19:46
(UTC+00:00)

IRS-1C Rocket - Pass Details

Date: 06 December 2019
Orbit: 800 x 806 km, 99.0° (Epoch: 17 January)

Event Time Altitude Azimuth Distance (km) Brightness Sun altitude
Rises 13:10:31 0° 11° (N) 3,320 7.2 -6.8°
Reaches altitude 10° 13:12:52 10° 9° (N) 2,385 6.4 -6.4°
Maximum altitude 13:18:06 71° 287° (WNW) 846 4.1 -5.5°
Drops below altitude 10° 13:23:18 10° 204° (SSW) 2,367 6.6 -4.6°
Sets 13:25:37 0° 202° (SSW) 3,293 7.3 -4.2°
